Location: Newark
(10.3333°N, 37.7167°E)
Time: 23:33:54
(UTC+00:00)

LightSail 2 - Pass Details

Date: 01 February 2020
Orbit: 700 x 722 km, 24.0° (Epoch: 19 February)

Event Time Altitude Azimuth Distance (km) Brightness Sun altitude
Rises 17:34:51 0° 272° (W) 3,072 9.5 -29.7°
Reaches altitude 10° 17:37:41 10° 258° (WSW) 2,158 8.5 -30.3°
Maximum altitude 17:41:42 23° 206° (SSW) 1,461 7.1 -31.3°
Enters shadow 17:42:24 23° 194° (SSW) 1,489 7.0 -31.5°
